一网星座-0029星 (ONEWEB-0029 )

导读

ONEWEB-0029是英国OneWeb公司低轨宽带互联网星座的组成卫星,于2020年3月21日发射升空,属于OneWeb第一代卫星组网任务。该卫星运行在低地球轨道,重量约147kg,工作于Ku波段,配备相控阵天线,旨在为全球提供高速宽带互联网接入服务,助力偏远地区网络覆盖,是OneWeb全球卫星通信星座部署的重要组成部分,推动了全球互联基础设施的建设。

基本信息
目录编号:
45445
目录名称:
ONEWEB-0029
国际标识:
2020-020X
轨道中心:
EARTH
卫星名称:
一网星座-0029星
卫星全名:
一网星座-0029星 (ONEWEB-0029 )
卫星状态:
在轨 (已飞行2319 天)
发射日期:
2020-03-21 UTC
国别 :
英国 (GB)
星等 :
--
轨道信息
数据来源 国际轨道数据 AOE轨道数据
星历时间 2026-07-27T17:20:24+0800
13小时前
查看轨道信息
2026-07-23T07:00:00+0800
4天前
查看轨道信息
半长轴 7595.829km 7595.805km
偏心率 0.0001614 0.0002228
轨道倾角 87.889° 87.887°
近地点辐角 99.225° 126.015°
升交点赤经 13.064° 13.947°
平近点角 260.906° 207.684°
近地点 1216.466km 1215.975km
远地点 1218.918km 1219.361km
周期 109.805分钟 109.805分钟
每日圈数 13.114147 13.114208
详细信息
平衡模式:
三轴稳定
覆盖范围:
全球
运营商:
一网卫星公司
运营商所在国:
英国
制造商(研发单位):
一网卫星公司
制造商所在国:
英国
使用方式:
暂无
卫星简介
OneWeb卫星网络由648颗重约125公斤的微型卫星组成,运行在1200公里的轨道上。 每颗卫星都能够提供至少每秒8千兆位的吞吐量,以使用其高吞吐量的Ku频段有效载荷为家庭和移动平台提供互联网接入。该卫星仍在工作。
2D轨道图
3D轨道图
轨道高度分析图
轨道倾角分析图
轨道综合分析图
查看轨道综合分析图